Regional Weather Roundup
Issued by NWS

Home | Current Version | Previous Version | Text Only | Print | Product List | Glossary Off
Versions: 1 2 3 4 5 6 7 8 9 10 11 12 13 14 15 16 17 18 19 20 21 22 23 24 25 26 27 28 29 30 31 32 33 34 35 36 37 38 39 40 41 42 43 44 45 46 47 48 49 50

160
ASUS45 KBOU 270407
RWRCO

WEATHER ROUNDUP FOR COLORADO
NATIONAL WEATHER SERVICE DENVER/BOULDER CO
1000 PM MDT MON JUN 26 2017

NOTE: "FAIR" INDICATES FEW OR NO CLOUDS BELOW 12000 FEET WITH NO
SIGNIFICANT WEATHER AND/OR OBSTRUCTIONS TO VISIBILITY.

COZ001>005-013-030-031-270500-
...NORTHWEST COLORADO...

CITY           SKY/WX    TMP DP  RH WIND       PRES   REMARKS
CRAIG          FAIR      69  39  33 E7        30.12R
HAYDEN         FAIR      66  34  30 SW6       30.15R
MEEKER         FAIR      69  36  29 CALM      30.12S
RABBIT EARS PA FAIR      59  21  23 N7        30.48S
STEAMBOAT SPGS FAIR      63  35  35 CALM      30.17R
WALDEN         FAIR      64  32  29 SE3       30.27F
$$

COZ006>008-011-270500-
...WEST CENTRAL VALLEYS...

CITY           SKY/WX    TMP DP  RH WIND       PRES   REMARKS
GRAND JUNCTION FAIR      76  20  12 SE3       29.95R
MONTROSE       FAIR      77  32  19 S7        30.07R
EAGLE          FAIR      69  32  25 E8        30.17R
RIFLE          FAIR      74  29  19 SE6       30.05R
DELTA          FAIR      80  20  10 NE7       30.01R
NUCLA          FAIR      77  25  14 E6        30.12R
$$

COZ017>023-064>068-270500-
...SOUTHWEST COLORADO...

CITY           SKY/WX    TMP DP  RH WIND       PRES   REMARKS
DURANGO        FAIR      62  42  47 N3        30.20R
CORTEZ         FAIR      71  36  27 NE3       30.11R
PAGOSA SPRINGS FAIR      62  30  29 CALM      30.30R
TELLURIDE      FAIR      64  33  31 SE5       30.41R
WOLF CREEK PAS FAIR      50  27  40 CALM      30.67S
$$

COZ009-010-012-014-032>034-037-058>063-270500-
...CENTRAL COLORADO...

CITY           SKY/WX    TMP DP  RH WIND       PRES   REMARKS
ASPEN          FAIR      59  33  37 SW10      30.26R
BUENA VISTA    FAIR      64  36  34 SE3       30.33R
COPPER MTN     FAIR      55  12  18 W3        30.62S
BERTHOUD PASS  MOCLDY    43  30  61 SE13G23   30.65S
COTTONWOOD PAS FAIR      61  34  36 SE12G21   30.47R
GUNNISON       FAIR      73  29  19 E5        30.26R
KREMMLING      NOT AVBL
LEADVILLE      FAIR      57  33  40 S3        30.45R
MONARCH PASS   FAIR      46  34  61 E15       30.72R
SALIDA         FAIR      67  37  33 SE9       30.37R
SUNLIGHT       FAIR      59  18  20 CALM      30.53S
WILKERSON PASS FAIR      50  30  46 W3        30.60R
$$

COZ069>075-270500-
...SAN LUIS VALLEY/SANGRE DE CRISTO MOUNTAINS...

CITY           SKY/WX    TMP DP  RH WIND       PRES   REMARKS
ALAMOSA        FAIR      57  41  55 S3        30.31R
DEL NORTE      FAIR      56  43  61 CALM      30.32S
LA VETA PASS   FAIR      50  34  53 MISG      30.62R
SAGUACHE       FAIR      61  37  41 SE5       30.33R
$$

COZ035-036-038>040-270500-
...NORTHERN COLORADO FRONT RANGE...

CITY           SKY/WX    TMP DP  RH WIND       PRES   REMARKS
DENVER INTL AP FAIR      72  47  40 SE15      30.12R
DMNS CITY PARK   N/A     74  48  40 E12G18    30.11R
AURORA         PTCLDY    70  50  49 SE17      30.14R
FRONT RANGE AP FAIR      73  46  38 SE14G22   30.15R
ERIE MUNI ARPT FAIR      73  46  37 E6        30.10R
BOULDER MUN AP FAIR      72  45  37 W3        30.12R
CENTENNIAL     FAIR      72  49  44 SE15      30.15R
BROOMFIELD     FAIR      73  45  35 E5        30.14S
FORT COLLINS   FAIR      72  54  53 E14       30.11R
LONGMONT       FAIR      67  51  56 NW5       30.13R
$$

COZ041-046-047-076>085-087-088-270500-
...PIKES PEAK/PALMER DIVIDE AND SOUTHERN FOOTHILLS...

CITY           SKY/WX    TMP DP  RH WIND       PRES   REMARKS
COLO. SPRINGS  FAIR      64  48  56 SE8       30.23R
A. F. ACADEMY  FAIR      64  48  54 S7        30.25R
SCHRIEVER AFB  FAIR      61  46  58 SE14      30.23R
CHEYENNE MTN   FAIR      64  44  49 CALM      30.22R
ELLICOTT       FAIR     N/A N/A N/A S12       30.21R
FALCON           N/A     59  46  61 S5        30.28S
FORT CARSON    FAIR      67  42  39 CALM      30.19R
LIMON          FAIR      64  55  72 SE9       30.19R
MONUMENT HILL  FAIR      59  46  63 S16       30.28R
CANON CITY     PTCLDY    79  45  29 NW12      30.14S
WALSENBURG     FAIR      64  48  55 S5        30.24R
TRINIDAD       FAIR      66  46  48 S16       30.26R
$$

COZ042>045-048>051-090-091-270500-
...NORTHEAST COLORADO...

CITY           SKY/WX    TMP DP  RH WIND       PRES   REMARKS
GREELEY ARPT   FAIR      72  57  59 E16       30.11R
AKRON          FAIR      65  56  72 SE17      30.15R
BURLINGTON     FAIR      64  58  80 E9        30.14R
WRAY           FAIR      66  55  68 E12G18    30.14R
YUMA           FAIR      63  54  72 E8        30.13S
STERLING       FAIR      68  59  73 SE12      30.10R
HOLYOKE        NOT AVBL
FORT MORGAN    FAIR      67  55  65 E15G21    30.13R
$$

COZ086-089-092>099-270500-
...SOUTHEAST COLORADO...

CITY           SKY/WX    TMP DP  RH WIND       PRES   REMARKS
PUEBLO         FAIR      72  46  39 SE6       30.12R
LA JUNTA       LGT RAIN  70  55  59 S25G39    30.03F
LAMAR          FAIR      76  52  43 SE10      30.06R
SPRINGFIELD      N/A     65  56  72 SW7       30.16R
$$




USA.gov is the U.S. government's official web portal to all federal, state and local government web resources and services.